Location: Fontevrault
(47.1823°N, 0.0493°E)
Time: 09:50:00
(UTC+00:00)

Cosmos 2237 Rocket - Pass Details

Date: 16 June 2021
Orbit: 835 x 850 km, 71.0° (Epoch: 26 July)

Event Time Altitude Azimuth Distance (km) Brightness Sun altitude
Exits shadow 23:23:55 34° 181° (S) 1,339 2.7 -19.0°
Maximum altitude 23:26:18 65° 112° (ESE) 920 2.2 -19.0°
Drops below altitude 10° 23:31:51 10° 32° (NNE) 2,456 5.3 -19.1°
Sets 23:34:19 0° 30° (NNE) 3,395 6.2 -19.2°
